Date String (YYYY-MM-DD hh:mm:ss) UTC,Instrument flags,Ambient pressure (hPa),Sample flow (lpm),Bypass flow (lpm),Sample temperature (°C),Ambient temperature (°C),ASC tube jacket temperature (°C),LED temperature (°C),Box temperature (°C),Sample RH (%),Span deviation,Mass concentration (μg/m³),Mass concentration (μg/m³),Mass concentration (μg/m³)
DateTimeUTC,F1_M11,P_M11,Q1_M11,Q2_M11,T1_M11,T2_M11,T3_M11,T4_M11,T5_M11,U1_M11,ZSPAN_M11,X0_M11,X2_M11,X1_M11
2023-02-06 10:00:00,,0814.2,5.00,0.00,22.5,21.5,00.0,31.3,24.2,12.3,0000.0,0009.19,0003.78,0002.93
2023-02-06 10:01:00,,0814.1,5.00,0.00,22.5,21.3,00.0,31.3,24.2,12.3,0000.0,0009.47,0003.76,0002.92
2023-02-06 10:02:00,,0814.3,5.00,0.00,22.5,21.2,00.0,31.3,24.2,12.3,0000.0,0009.66,0003.76,0002.92
2023-02-06 10:03:00,,0814.2,4.99,0.00,22.5,21.2,00.0,31.3,24.2,12.2,0000.0,0009.54,0003.80,0002.94
2023-02-06 10:04:00,,0814.1,4.99,0.00,22.4,21.1,00.0,31.3,24.2,12.3,0000.0,0009.07,0003.83,0002.99
2023-02-06 10:05:00,,0814.2,5.00,0.00,22.4,21.0,00.0,31.3,24.1,12.4,0000.0,0009.51,0003.86,0003.01
2023-02-06 10:06:00,,0814.3,5.01,0.00,22.4,21.0,00.0,31.3,24.1,12.5,0000.0,0009.48,0003.90,0003.03
2023-02-06 10:07:00,,0814.3,5.02,0.00,22.4,21.0,00.0,31.3,24.1,12.4,0000.0,0009.44,0003.93,0003.04
2023-02-06 10:08:00,,0814.1,5.01,0.00,22.4,20.9,00.0,31.3,24.1,12.4,0000.0,0009.85,0003.97,0003.05
2023-02-06 10:09:00,,0814.2,5.01,0.00,22.4,20.9,00.0,31.3,24.1,12.6,0000.0,0009.96,0003.99,0003.08
2023-02-06 10:10:00,,0814.1,5.01,0.00,22.4,20.8,00.0,31.3,24.0,12.7,0000.0,0010.09,0004.02,0003.09
2023-02-06 10:11:00,,0814.0,5.00,0.00,22.3,20.7,00.0,31.2,23.9,12.7,0000.0,0009.84,0004.00,0003.09
2023-02-06 10:12:00,,0814.0,4.99,0.00,22.3,20.7,00.0,31.2,23.9,12.8,0000.0,0009.97,0004.02,0003.10
2023-02-06 10:13:00,,0814.2,4.99,0.00,22.3,20.7,00.0,31.2,23.9,12.8,0000.0,0009.93,0004.06,0003.10
2023-02-06 10:14:00,,0814.0,5.01,0.00,22.2,20.6,00.0,31.2,23.9,12.9,0000.0,0009.85,0004.06,0003.11
2023-02-06 10:15:00,,0813.9,5.03,0.00,22.2,20.6,00.0,31.2,23.9,12.9,0000.0,0009.61,0004.04,0003.09
2023-02-06 10:16:00,,0813.9,5.02,0.00,22.2,20.6,00.0,31.2,23.8,13.0,0000.0,0009.36,0004.01,0003.07
2023-02-06 10:17:00,,0813.9,4.98,0.00,22.2,20.5,00.0,31.2,23.7,13.3,0000.0,0008.85,0003.98,0003.09
2023-02-06 10:18:00,,0813.9,4.99,0.00,22.1,20.5,00.0,31.1,23.7,13.5,0000.0,0008.60,0003.94,0003.07
2023-02-06 10:19:00,,0814.3,4.98,0.00,22.2,20.9,00.0,31.1,23.9,13.6,0000.0,0008.24,0003.87,0003.04
2023-02-06 10:20:00,,0814.3,5.01,0.00,22.3,22.1,00.0,31.1,24.2,13.7,0000.0,0008.02,0003.82,0003.02
2023-02-06 10:21:00,,0813.9,5.02,0.00,22.4,23.0,00.0,31.1,24.5,13.7,0000.0,0007.82,0003.79,0003.01
2023-02-06 10:22:00,,0814.0,5.00,0.00,22.5,22.8,00.0,31.2,24.5,13.7,0000.0,0007.85,0003.81,0003.00
2023-02-06 10:23:00,,0814.1,4.95,0.00,22.5,22.3,00.0,31.2,24.4,13.9,0000.0,0007.61,0003.78,0002.96
2023-02-06 10:24:00,,0814.2,5.02,0.00,22.5,21.9,00.0,31.2,24.3,13.8,0000.0,0007.36,0003.77,0002.94
2023-02-06 10:25:00,,0814.1,5.01,0.00,22.5,21.6,00.0,31.3,24.3,13.7,0000.0,0007.64,0003.73,0002.90
2023-02-06 10:26:00,,0814.0,5.01,0.00,22.5,21.4,00.0,31.3,24.2,13.7,0000.0,0007.53,0003.67,0002.85
2023-02-06 10:27:00,,0814.2,4.98,0.00,22.5,21.2,00.0,31.3,24.2,13.6,0000.0,0007.50,0003.65,0002.81
2023-02-06 10:28:00,,0814.0,5.04,0.00,22.4,21.1,00.0,31.3,24.1,13.6,0000.0,0007.34,0003.60,0002.75
2023-02-06 10:29:00,,0814.0,4.99,0.00,22.4,21.0,00.0,31.3,24.1,13.5,0000.0,0007.37,0003.54,0002.69
2023-02-06 10:30:00,,0814.2,4.96,0.00,22.4,20.9,00.0,31.3,24.0,13.6,0000.0,0007.40,0003.52,0002.65
2023-02-06 10:31:00,,0813.6,5.00,0.00,22.3,20.8,00.0,31.3,24.0,13.5,0000.0,0007.15,0003.46,0002.61
2023-02-06 10:32:00,,0813.7,5.04,0.00,22.3,20.8,00.0,31.3,24.0,13.3,0000.0,0006.80,0003.36,0002.50
2023-02-06 10:33:00,,0814.1,4.99,0.00,22.3,20.7,00.0,31.3,23.9,13.4,0000.0,0006.32,0003.24,0002.41
2023-02-06 10:34:00,,0813.8,4.97,0.00,22.3,20.7,00.0,31.2,23.9,13.4,0000.0,0005.92,0003.14,0002.30
2023-02-06 10:35:00,,0813.6,5.02,0.00,22.2,20.6,00.0,31.2,23.8,13.3,0000.0,0005.49,0002.96,0002.20
2023-02-06 10:36:00,,0813.6,5.02,0.00,22.2,20.5,00.0,31.2,23.8,13.4,0000.0,0004.54,0002.74,0002.09
2023-02-06 10:37:00,,0813.7,4.98,0.00,22.2,20.5,00.0,31.2,23.7,13.2,0000.0,0004.43,0002.67,0002.01
2023-02-06 10:38:00,,0813.6,4.97,0.00,22.2,20.4,00.0,31.2,23.7,13.1,0000.0,0004.11,0002.51,0001.92
2023-02-06 10:39:00,,0813.7,4.97,0.00,22.2,20.7,00.0,31.1,23.8,13.0,0000.0,0003.86,0002.39,0001.83
2023-02-06 10:40:00,,0814.0,5.03,0.00,22.2,21.8,00.0,31.1,24.1,12.7,0000.0,0003.55,0002.29,0001.74
2023-02-06 10:41:00,,0813.9,5.00,0.00,22.4,22.6,00.0,31.1,24.4,12.7,0000.0,0003.15,0002.12,0001.63
2023-02-06 10:42:00,,0814.0,4.97,0.00,22.4,22.3,00.0,31.2,24.4,12.5,0000.0,0003.05,0002.01,0001.53
2023-02-06 10:43:00,,0814.1,5.02,0.00,22.4,21.9,00.0,31.2,24.3,12.4,0000.0,0003.06,0001.98,0001.49
2023-02-06 10:44:00,,0814.4,5.01,0.00,22.4,21.6,00.0,31.2,24.2,12.6,0000.0,0002.98,0001.92,0001.43
2023-02-06 10:45:00,,0814.4,4.97,0.00,22.4,21.4,00.0,31.2,24.2,12.9,0000.0,0002.94,0001.87,0001.40
2023-02-06 10:46:00,,0814.4,4.99,0.00,22.4,21.3,00.0,31.2,24.2,13.0,0000.0,0002.78,0001.78,0001.36
2023-02-06 10:47:00,,0814.4,5.02,0.00,22.4,21.2,00.0,31.2,24.2,13.3,0000.0,0002.67,0001.75,0001.33
2023-02-06 10:48:00,,0814.4,5.03,0.00,22.4,21.2,00.0,31.2,24.2,13.4,0000.0,0002.76,0001.76,0001.32
2023-02-06 10:49:00,,0814.4,4.98,0.00,22.4,21.1,00.0,31.3,24.2,13.5,0000.0,0002.78,0001.76,0001.31
2023-02-06 10:50:00,,0814.4,4.97,0.00,22.4,21.1,00.0,31.3,24.2,13.6,0000.0,0002.77,0001.76,0001.31
2023-02-06 10:51:00,,0814.5,5.01,0.00,22.4,21.0,00.0,31.3,24.2,13.8,0000.0,0003.03,0001.92,0001.44
2023-02-06 10:52:00,,0814.8,5.01,0.00,22.4,20.9,00.0,31.3,24.2,13.9,0000.0,0003.48,0002.29,0001.75
2023-02-06 10:53:00,,0814.4,5.02,0.00,22.4,20.9,00.0,31.2,24.2,13.9,0000.0,0003.87,0002.60,0002.01
2023-02-06 10:54:00,,0814.5,4.98,0.00,22.4,20.9,00.0,31.2,24.2,14.1,0000.0,0004.38,0002.90,0002.25
2023-02-06 10:55:00,,0814.9,4.97,0.00,22.4,20.9,00.0,31.2,24.1,14.1,0000.0,0004.70,0003.12,0002.47
2023-02-06 10:56:00,,0815.0,5.00,0.00,22.3,20.9,00.0,31.2,24.1,14.0,0000.0,0004.88,0003.20,0002.59
2023-02-06 10:57:00,,0815.0,5.02,0.00,22.3,20.8,00.0,31.2,24.1,14.0,0000.0,0005.23,0003.30,0002.72
2023-02-06 10:58:00,,0814.9,5.03,0.00,22.3,20.7,00.0,31.2,24.0,14.0,0000.0,0005.46,0003.36,0002.81
2023-02-06 10:59:00,,0814.9,5.00,0.00,22.3,20.6,00.0,31.2,24.0,14.0,0000.0,0005.54,0003.38,0002.86
